Location: Arezzo
(43.4170°N, 11.8830°E)
Time: 08:22:57
(UTC+02:00)

STARLINK-2753 - Pass Details

Date: 24 June 2021
Orbit: 345 x 354 km, 53.0° (Epoch: 24 July)

Event Time Altitude Azimuth Distance (km) Brightness Sun altitude
Exits shadow 03:33:02 12° 139° (SE) 1,233 5.3 -16.0°
Maximum altitude 03:33:28 12° 130° (SE) 1,220 5.3 -16.0°
Drops below altitude 10° 03:34:45 10° 104° (ESE) 1,342 5.8 -15.9°
Sets 03:37:41 0° 72° (ENE) 2,192 7.6 -15.6°
